Regional Weather Roundup
Issued by NWS

Home | Current Version | Previous Version | Text Only | Print | Product List | Glossary Off
Versions: 1 2 3 4 5 6 7 8 9 10 11 12 13 14 15 16 17 18 19 20 21 22 23 24 25 26 27 28 29 30 31 32 33 34 35 36 37 38 39 40 41 42 43 44 45 46 47 48 49 50

000
ASUS43 KDMX 270704
RWRIA

WEATHER ROUNDUP FOR IOWA
NATIONAL WEATHER SERVICE DES MOINES IA
  ISSUED BY NWS QUAD CITIES IA IL
200 AM CDT FRI MAR 27 2015

NOTE: "FAIR" INDICATES FEW OR NO CLOUDS BELOW 12,000 FEET WITH NO
SIGNIFICANT WEATHER AND/OR OBSTRUCTIONS TO VISIBILITY.

* - THESE STATIONS ARE NOT NWS STATIONS...THUS NOT UNDER NWS
QUALITY CONTROL.  THEY ALSO DO NOT REPORT WEATHER SUCH
AS PRECIPITATION OR FOG.

IAZ001>003-012>014-020>022-031>034-043>046-270800-
   NORTHWEST IOWA

CITY           SKY/WX    TMP DP  RH WIND       PRES   REMARKS
CARROLL *      MOCLDY    25  19  80 N10       30.21S WCI  15
CHEROKEE *     SUNNY     24  18  78 N6        30.24S WCI  17
DENNISON *     CLEAR     27  21  80 N7        30.21R WCI  19
LE MARS *      CLEAR     25  19  80 N7        30.26S WCI  17
ORANGE CITY *  CLEAR     25  18  74 N8        30.24S WCI  16
SHELDON *      CLEAR     19  16  86 NW8       30.23S WCI   9
SIOUX CITY     CLEAR     26  18  71 N8        30.26R WCI  18
SPENCER        CLEAR     20  14  77 NW9       30.23R WCI   9
STORM LAKE *   CLEAR     21  18  86 N12       30.22S WCI   9
$$

IAZ055>058-069>071-079>083-090>094-270800-
   SOUTHWEST IOWA

CITY           SKY/WX    TMP DP  RH WIND       PRES   REMARKS
ATLANTIC *     CLOUDY    30  23  74 N8G15     30.21S WCI  23
AUDUBON *      CLEAR     27  19  74 N9        30.21S WCI  17
CLARINDA *     CLEAR     32  30  93 N7        30.22R WCI  26
COUNCIL BLFS * CLOUDY    30  27  86 N12       30.22R WCI  21
CRESTON *      CLOUDY    30  25  80 N10       30.18R WCI  21
HARLAN *       MOCLDY    28  23  80 N10       30.25S WCI  19
LAMONI         CLOUDY    32  25  75 N7        30.16R WCI  26
RED OAK *      CLOUDY    30  25  80 N12G17    30.22R WCI  21
SHENANDOAH *   CLEAR     32  30  93 N9        30.22R WCI  24
$$

IAZ047>049-059>061-072>074-084-270800-
   CENTRAL IOWA

CITY           SKY/WX    TMP DP  RH WIND       PRES   REMARKS
AMES           CLOUDY    30  16  56 N14G21    30.19S WCI  19
ANKENY *       CLOUDY    32  19  59 N12       30.19S WCI  23
BOONE *        CLOUDY    30  19  64 N12       30.17S WCI  21
CHARITON *     CLOUDY    30  21  69 N10       30.17R WCI  21
DES MOINES     CLOUDY    32  18  56 N8        30.19S WCI  25
GRINNELL *     CLOUDY    31  20  65 N8        30.17R WCI  23
KNOXVILLE *    CLOUDY    32  21  64 N12       30.16R WCI  23
MARSHALLTOWN   CLOUDY    30  21  69 N9        30.16S WCI  22
NEWTON *       CLOUDY    30  19  64 N9        30.17S WCI  22
PELLA *        CLOUDY    32  24  72 N12       30.18S WCI  23
PERRY *        CLOUDY    31  22  70 N12       30.20S WCI  21
$$

IAZ004>006-015-016-023>025-035-036-270800-
   NORTH CENTRAL IOWA

CITY           SKY/WX    TMP DP  RH WIND       PRES   REMARKS
ALGONA *       MOCLDY    25  19  80 NW9       30.21S WCI  15
CLARION *      CLEAR     27  21  80 NW7       30.20R WCI  19
ESTHERVILLE    CLEAR     22  16  78 N10       30.21R WCI  11
FORT DODGE *   CLEAR     27  16  63 CALM      30.21S
MASON CITY     CLEAR     24  18  77 N9        30.19S WCI  14
FOREST CITY *  FAIR      23  19  86 NW9       30.19R WCI  13
WEBSTER CITY * CLOUDY    27  19  74 N10G16    30.18S WCI  17
IOWA FALLS *   CLOUDY    29  20  69 N13       30.18S WCI  19
$$

IAZ007>011-017>019-026>030-037>042-050>054-066-270800-
   NORTHEAST IOWA

CITY           SKY/WX    TMP DP  RH WIND       PRES   REMARKS
CEDAR RAPIDS   CLOUDY    29  22  75 NW8       30.13S WCI  21
CHARLES CITY * CLEAR     27  21  80 N13       30.17S WCI  16
CLINTON *      CLOUDY    30  25  80 N8        30.14F WCI  23
DECORAH *      PTCLDY    25  14  63 N8        30.14S WCI  16
DUBUQUE        CLOUDY    29  19  66 NE5       30.11S WCI  24
MONTICELLO *   CLOUDY    30  27  86 N6        30.13F WCI  24
OELWEIN *      CLOUDY    28  21  74 N9G16     30.15S WCI  20
WATERLOO       CLOUDY    29  20  69 N16       30.16R WCI  17
$$

IAZ064-065-067-068-078-270800-
   EAST CENTRAL IOWA

CITY           SKY/WX    TMP DP  RH WIND       PRES   REMARKS
DAVENPORT      CLOUDY    30  22  72 N10       30.12S WCI  21
IOWA CITY      CLOUDY    31  21  66 NW8       30.16S WCI  23
MT. PLEASANT * MOCLDY    31  21  67 N9        30.14F WCI  22
MUSCATINE *    CLOUDY    30  21  69 NW9       30.15S WCI  22
QUAD CITIES    CLOUDY    31  21  66 NW9       30.11F WCI  23
$$

IAZ062-063-075>077-085>089-095>099-270800-
   SOUTHEAST IOWA

CITY           SKY/WX    TMP DP  RH WIND       PRES   REMARKS
BURLINGTON     PTCLDY    31  20  63 N12       30.13S WCI  22
FAIRFIELD *    CLOUDY    32  21  64 N8        30.15S WCI  25
FORT MADISON * CLOUDY    30  23  74 N10       30.14S WCI  21
KEOKUK *       CLOUDY    32  23  69 N7G13     30.13S WCI  26
OSKALOOSA *    CLOUDY    31  21  65 N7        30.16F WCI  25
CENTERVILLE *  CLOUDY    32  25  74 N8        30.16S WCI  25
OTTUMWA        CLOUDY    32  22  66 N12       30.15F WCI  23
WASHINGTON *   CLOUDY    32  23  69 NW9       30.15S WCI  24
$$

ABBREVIATIONS USED IN REMARKS
   TC - TEMPERATURES IN CELSIUS
  WCI - WIND CHILL INDEX
   HX - HEAT INDEX
  VSB - VISIBILITY
$$



USA.gov is the U.S. government's official web portal to all federal, state and local government web resources and services.